"Pseudo-MPEC" for CEQQZ32

Created 2026 Sep 5 9:35:06 UT using Find_Orb

Click here for an explanation of pseudo-MPECs

 
 Astrometry: 
     CEQQZ32*1C2026 09 02.17071720 54 44.060-18 10 58.94   ~9255 19.84GVNEOCPG96
     CEQQZ32 1C2026 09 02.17594720 54 48.352-18 11 06.18   ~9255       VNEOCPG96
     CEQQZ32 1C2026 09 02.18116720 54 52.643-18 11 13.70   ~9255 19.50GVNEOCPG96
     CEQQZ32 1C2026 09 02.18638620 54 56.927-18 11 21.23   ~9255 20.19GVNEOCPG96
     CEQQZ32 1C2026 09 02.20885020 55 15.470-18 11 51.58   ~925K 19.92GVNEOCPG96
     CEQQZ32 1C2026 09 02.20903820 55 15.589-18 11 51.65   ~925K 19.66GVNEOCPG96
     CEQQZ32 1C2026 09 02.21042520 55 16.777-18 11 53.45   ~925K 19.99GVNEOCPG96
     CEQQZ32 1C2026 09 02.21132720 55 17.479-18 11 54.56   ~925K 19.77GVNEOCPG96
     CEQQZ32 0C2026 09 03.22971721 17 43.200-18 33 36.51   ~955K 19.16iUNEOCPI41
     CEQQZ32 0C2026 09 03.29414521 19 22.692-18 34 57.90   ~955K 19.92gUNEOCPI41
     CEQQZ32 0C2026 09 04.23021821 58 59.880-18 46 47.66   ~955K 18.28rUNEOCPI41
     CEQQZ32 0C2026 09 04.23056621 59 00.930-18 46 47.78   ~955K 18.28rUNEOCPI41
     CEQQZ32 0C2026 09 04.23210321 59 05.881-18 46 48.05   ~955K 18.63rUNEOCPI41
     CEQQZ32 0C2026 09 04.23245021 59 06.959-18 46 47.99   ~955K 18.63rUNEOCPI41
     CEQQZ32 0C2026 09 04.32093622 03 57.910-18 46 11.38   ~955K 18.79gUNEOCPI41
     CEQQZ32 0C2026 09 04.32128422 03 59.020-18 46 11.13   ~955K 18.79gUNEOCPI41
     CEQQZ32*0C2026 09 04.41043822 09 51.079-18 42 23.51   ~94Eo 17.83oVNEOCPT05
     CEQQZ32 0C2026 09 04.44586322 12 02.026-18 41 24.18   ~94Eox19.11oVNEOCPT05
     CEQQZ32 0C2026 09 04.44951622 12 15.223-18 41 16.91   ~94Eo 17.43oVNEOCPT05
     CEQQZ32 0C2026 09 04.45811022 12 47.652-18 40 58.73   ~94Eox18.90oVNEOCPT05
     CEQQZ32 1B2026 09 04.81533822 42 53.345-18 06 37.30   ~94K5 18.0 VZNEOCPM49
     CEQQZ32 1B2026 09 04.81676922 43 00.984-18 06 30.64   ~94K5 18.3 VZNEOCPM49
     CEQQZ32 1B2026 09 04.81818422 43 08.578-18 06 24.08   ~94K5 17.7 VZNEOCPM49
     CEQQZ32 KC2026 09 04.84368422 45 20.70 -18 22 44.9    ~9505       VNEOCP587
     CEQQZ32 KC2026 09 04.84532722 45 29.86 -18 22 37.0    ~9505       VNEOCP587
     CEQQZ32 KC2026 09 04.84697122 45 39.00 -18 22 29.0    ~9505 17.6 GVNEOCP587
     CEQQZ32 KB2026 09 04.86022522 46 49.627-18 21 33.73   ~94LK 17.6 GXNEOCP595
     CEQQZ32 KB2026 09 04.86180122 46 58.462-18 21 25.74   ~94LK 17.3 GXNEOCP595
     CEQQZ32 KB2026 09 04.86338122 47 07.301-18 21 17.53   ~94LK 17.8 GXNEOCP595
     CEQQZ32 KB2026 09 04.88849022 49 33.299-18 18 32.58   ~94Lo 18.09GXNEOCP126
     CEQQZ32 KB2026 09 04.89317522 50 00.040-18 18 05.23   ~94Lo 18.75GXNEOCP126
     CEQQZ32 KB2026 09 04.90488422 51 06.912-18 17 26.30   ~94MKx18.5 GWNEOCP151
     CEQQZ32 KB2026 09 04.90517422 51 08.654-18 17 22.20   ~94MK 18.6 GWNEOCP151
     CEQQZ32 KB2026 09 04.90546322 51 10.298-18 17 21.01   ~94MK 18.3 GWNEOCP151
     CEQQZ32 KB2026 09 04.90662022 51 17.006-18 17 11.69   ~94MZ 17.8 GWNEOCP151
     CEQQZ32 KB2026 09 04.90691022 51 18.907-18 17 11.08   ~94MZx17.8 GWNEOCP151
     CEQQZ32 KB2026 09 04.90806722 51 25.378-18 17 03.91   ~94MZ 17.9 GWNEOCP151
     CEQQZ32 KB2026 09 04.90843122 51 36.67 -18 16 14.9    ~94MK 17.6 GXNEOCPI93
     CEQQZ32 KB2026 09 04.90891222 51 29.621-18 16 27.30   ~94MZ 17.6 GXNEOCPK83
     CEQQZ32 KB2026 09 04.90915022 51 40.85 -18 16 11.7    ~94MK 17.5 GXNEOCPI93
     CEQQZ32 KB2026 09 04.91049222 51 48.64 -18 16 02.9    ~94MK 18.1 GXNEOCPI93
     CEQQZ32 KB2026 09 04.91401622 51 59.165-18 15 54.76   ~94MZ 17.6 GXNEOCPK83
     CEQQZ32 KB2026 09 04.91588022 52 10.838-18 16 12.83   ~94MZ 18.3 GWNEOCP151
     CEQQZ32 KB2026 09 04.91735022 52 18.530-18 15 32.87   ~94MZ 17.9 GXNEOCPK83
     CEQQZ32 0C2026 09 04.93555822 54 14.081-18 14 19.18   ~94Mo 17.7 GWNEOCPJ95
     CEQQZ32 KC2026 09 04.93695922 54 25.48 -18 13 01.0    ~94N5 17.5 GXNEOCP958
     CEQQZ32 0C2026 09 04.93814722 54 29.558-18 14 01.39   ~94Mo 17.8 GWNEOCPJ95
     CEQQZ32 KC2026 09 04.94162222 54 53.15 -18 12 29.5    ~94N5 17.7 GXNEOCP958
     CEQQZ32 0C2026 09 04.94193222 54 52.241-18 13 35.51   ~94Mo 17.4 GWNEOCPJ95
     CEQQZ32 KB2026 09 04.94283 22 54 35.34 -18 13 08.5    ~94N5 17.6 GXNEOCPL04
     CEQQZ32 0B2026 09 04.94422522 55 09.324-18 12 42.05   ~94NK 17.4 GXNEOCPR54
     CEQQZ32 0C2026 09 04.94441222 55 07.154-18 13 17.83   ~94Mo 17.4 GWNEOCPJ95
     CEQQZ32 KB2026 09 04.94609 22 54 54.75 -18 12 43.2    ~94N5 17.8 GXNEOCPL04
     CEQQZ32 KC2026 09 04.94630822 55 21.12 -18 11 56.6    ~94N5 17.3 GXNEOCP958
     CEQQZ32 0B2026 09 04.94772022 55 30.276-18 12 17.46   ~94NK 17.5 GXNEOCPR54
     CEQQZ32 0B2026 09 04.95121522 55 51.283-18 11 52.66   ~94NK 17.2 GXNEOCPR54
     CEQQZ32 0B2026 09 04.96534522 57 13.742-18 10 41.81   ~94No 17.8 GWNEOCPJ69
     CEQQZ32 0B2026 09 04.96753722 57 27.206-18 10 24.53   ~94No 17.1 GWNEOCPJ69
     CEQQZ32 0B2026 09 04.96970422 57 40.361-18 10 07.18   ~94No 17.1 GWNEOCPJ69

Station data:
(126) Monte Viseggi  (N44.132565 E9.790150)  Italy.
   Observers L. Sannino, A. Mancuso, S. Mercanti, D. Agnetti. Measurers L.
   Sannino, A. Mancuso. 0.41-m f/5.3 reflector + CCD.
(151) Eschenberg Observatory, Winterthur  (N47.476028 E8.744000)  Switzerland.
     Observer D. Luongo. 0.6-m f/3.8 Astrograph + CCD.
(587) Sormano  (N45.882946 E9.229180)  Italy.  Observers E. Colzani, E. Valli.
    Measurer P. Sicoli. 0.5-m f/6.8 reflector + CCD.
(595) Farra d'Isonzo  (N45.915731 E13.525780)  Italy.  Observers S. Aschi, E.
   Pettarin, G. Panterotto. Measurers S. Aschi, E. Pettarin. 0.40-m f/5.15
   reflector + CCD.
(958) Observatoire de Dax  (N43.693381 W1.030530)  France.  Observer P.
   Dupouy. 0.32-m Schmidt-Cassegrain.
(G96) Mt. Lemmon Survey  (N32.442729 W110.788720)
   US/Arizona.  Observer E. J. Christensen. Measurers T. Beuden, V. F.
   Carvajal, D. Fay, J. B. Fazekas, D. C. Fuls, A. R. Gibbs, A. D. Grauer, H.
   Gröller, J. K. Hogan, R. A. Kowalski, S. M. Larson, G. J. Leonard, D.
   Rankin, R. L. Seaman, F. C. Shelly, K. W. Wierzchoś. 1.5-m reflector + 10K
   CCD.
(I41) Palomar Mountain--ZTF  (N33.357336 W116.859780)  US/California.
   Observers B. T. Bolin, Z. T. F. Collaboration. Measurers B. T. Bolin,
   Z.-Y. Lin, F. J. Masci. 1.2-m f/2.4 Schmidt.
(I93) St Pardon de Conques  (N44.558670 W0.202960)  France.  Observers F.
   Losse, W. D'Anna. Measurer F. Losse. 0.40-m f/3.7 reflector + CCD.
(J69) North Observatory, Clanfield  (N50.938986 W1.019660)  UK/England.
   Observer D. Briggs. 0.41-m f/4.5 Newtonian reflector + CCD.
(J95) Great Shefford  (N51.474969 W1.447003)  UK/England.  Observer P.
   Birtwhistle. 0.41-m f/6.3 Schmidt-Cassegrain + CCD.
(K83) Beppe Forti Astronomical Observatory, Montelupo  (N43.755330
   E11.043170)  Italy.  Observers M. Tombelli, A. Mazzanti, E. Venticinque.
   Measurers G. Interrante, M. Iozzi, M. Tombelli, F. Bernardi. 0.40-m f/8
   Ritchey-Chrétien + CCD.
(L04) ROASTERR-1 Observatory, Cluj-Napoca  (N46.820952 E23.596400)  Romania.
   Observer L. Hudin. 0.1-m f/9 refractor + CCD.
(M49) IAS Remote Observatory, Hakos  (S23.236549 E16.361720)  Namibia.
   Observers D. Husar, M. Junius. Measurer D. Husar. 0.25-m f/4.6 reflector +
   CCD.
(R54) Petit Cosquet, Bangor  (N47.314413 W3.211500)  France.
(T05) ATLAS-HKO, Haleakala  (N20.707551 W156.257010)  US/Hawaii.  Observers
   L. Denneau, R. Siverd, J. Tonry, H. Weiland. Measurers L. Denneau, N.
   Erasmus, A. Fitzsimmons, J. Robinson, R. Siverd, J. Tonry, H. Weiland.
   0.5-m f/2.0 Schmidt + CCD.

Orbital elements:  CEQQZ32
   Perihelion 2026 Sep 29.054900 +/- 0.00118 TT =  1:19:03.3 (JD 2461312.554900)
Epoch 2026 Sep  4.0 TT = JDT 2461287.5   Earth MOID: 0.0023   Ma: 0.0604
M 350.670723363 +/- 0.0038          (J2000 ecliptic)             AutoNEOCP
n   0.372353372 +/- 0.000137        Peri.  213.106057 +/- 0.00029
a   1.913517866 +/- 0.000469        Node   158.291971 +/- 0.00016
e   0.49169000 +/- 0.000127         Incl.    1.136934 +/- 0.00022
P   2.647/966.805d         H 27.75  G  0.15   U  6.8
q 0.972660252 +/- 5.74e-6    Q 2.854375480 +/- 0.000943
55 of 59 observations 2026 Sept. 2-4; mean residual 0".46
Residuals in arcseconds: 
260902 G96  .06+  .18-    260904 M49  .14+  .24-    260904 I93  .45-  .19+    
260902 G96  .07-  .17+    260904 M49  .32-  .02-    260904 K83  .32+  .03-    
260902 G96  .10-  .12+    260904 M49  .28-  .12+    260904 151  .12-  .74+    
260902 G96  .24-  .05-    260904 587  .65-  .31-    260904 K83  .22+  .11+    
260902 G96  .04+  .08-    260904 587  .09-  .28-    260904 J95  .17-  .02-    
260902 G96  .48-  .10+    260904 587  .03-  .20-    260904 958  .74+  .72+    
260902 G96  .10+  .10+    260904 595  .36-  .25+    260904 J95  .13-  .07+    
260902 G96  .52-  .15+    260904 595  .09-  .01-    260904 958  .10+  .21+    
260903 I41  .48+  .56-    260904 595  .20-  .12-    260904 J95  .03-  .25-    
260903 I41  1.5+  .07-    260904 126  .38-  .13+    260904 L04  .14+  .40-    
260904 I41  .23+  .08+    260904 126  .69-  .05+    260904 R54  .55+  .14+    
260904 I41  .59-  .02+    260904 151( .14-  2.9-)   260904 J95  .26+  .06+    
260904 I41  .19+  .01+    260904 151  .75+  .63-    260904 L04  .28+  .01+    
260904 I41  .21-  .13+    260904 151  .33+  1.2-    260904 958  .43+  .35+    
260904 I41  .74+  .11+    260904 151  .37+  .87+    260904 R54  .39+  .22+    
260904 I41  .33-  .00     260904 151( 3.5+  .34-)   260904 R54  .24+  .17+    
260904 T05  1.0+  .32+    260904 151  .07+  .43-    260904 J69  .01+  .70-    
260904 T05( 5.1+  .03+)   260904 I93  .03-  .77+    260904 J69  1.0+  .17-    
260904 T05  2.4-  .06-    260904 K83  .59+  .16+    260904 J69  .48-  .48+    
260904 T05( 3.1-  .11-)   260904 I93  .09-  .41-    

Ephemerides (geocentric):
Date (UTC) HH   RA             Dec           delta  r     elong  mag " sig PA
---- --------  ------------   ------------  ------ ------ -----  --- --------
2026 09 05 10  23 55 22.516   -16 03 04.02  915746 1.0141 162.7 17.6 .312 155
2026 09 05 11  00 01 51.963   -15 46 57.29  901229 1.0140 161.5 17.6 .317 155
